sat.trackr.live / text

‹ back to catalog

ONEWEB-0244

NORAD 48776 · 2021-045K

PAYLOAD ACTIVE UNKNOWN

§ Identity

Operator
Country
UK
Launch date
2021-05-28
Launch site
VOSTO
Launch vehicle
Mass (kg)
RCS (m²)

Purposes: comms

External: N2YO · Heavens-Above · Gunter

§ Orbital elements

Epoch: 2026-05-25T00:41:49.570080Z

Period
109.46 min
Inclination
87.9004°
Eccentricity
0.0001809
Mean motion
13.15547476 rev/d
Perigee alt
1,200.4 km
Apogee alt
1,203.1 km
Semi-major
7,579.9 km
B*
2.7249e-5
RAAN
263.7926°
Arg perigee
96.8211°
Mean anomaly
263.3126°
Rev number
24,192

§ Raw data

ONEWEB-02441 48776U 21045K   26145.02904595  .00000023  00000+0  27249-4 0  99982 48776  87.9004 263.7926 0001809  96.8211 263.3126 13.15547476241926

JSON: /api/v1/satellites/48776 · /tle

For live sub-satellite position, see the globe view (requires WebGL).

§ Visibility from observer

Set your observer location to see the next 7 days of passes ≥ 10°. The values pass through the URL so the page stays shareable.

No JS? Fill the form by hand. The geolocation button needs JavaScript.